EW9532 Weather Reports


time (UTC)temp
C
wind
direction
speed
KPH
gust
KPH
rain 1hr
cm
rain 24hr
cm
rain mn
cm
humidity
%
barometer
mb
20260508012612 23 347 0.0 11.3 0.00 0.00 0.00 87 1013.4
20260508012603 23 243 0.0 12.9 0.00 0.00 0.00 87 1013.5
20260508011602 23 212 0.0 11.3 0.00 0.00 0.00 86 1013.4
20260508011554 23 15 0.0 8.0 0.00 0.00 0.00 86 1013.6
20260508011102 23 307 0.0 9.7 0.00 0.00 0.00 86 1013.5
20260508010601 23 113 1.6 9.7 0.00 0.00 0.00 85 1013.3
20260508010351 23 235 0.0 11.3 0.00 0.00 0.00 85 1013.0
20260508010049 23 0 0.0 9.7 0.00 0.00 0.00 85 1013.3
20260508005601 23 248 0.0 11.3 0.00 0.00 0.00 85 1012.8
20260508005101 23 110 0.0 9.7 0.00 0.00 0.00 85 1012.6
20260508004601 23 21 0.0 9.7 0.00 0.00 0.00 85 1012.7
20260508004550 23 0 0.0 3.2 0.00 0.00 0.00 84 1012.9
20260508004101 23 70 0.0 9.7 0.00 0.00 0.00 85 1012.8
20260508003601 23 221 0.0 11.3 0.00 0.00 0.00 85 1012.6
20260508003101 23 273 0.0 11.3 0.00 0.00 0.00 84 1012.7
20260508003049 23 167 0.0 9.7 0.00 0.00 0.00 83 1012.9
20260508002603 23 126 0.0 8.0 0.00 0.00 0.00 83 1013.0
20260508002102 24 124 0.0 8.0 0.00 0.00 0.00 83 1013.0
20260508001818 24 156 0.0 0.0 0.00 0.00 0.00 83 1013.1
20260508001547 23 0 0.0 3.2 0.00 0.00 0.00 82 1013.3
20260508001047 24 84 0.0 3.2 0.00 0.00 0.00 83 1013.1
20260508000538 24 322 0.0 9.7 0.00 0.00 0.00 83 1012.8
20260508000105 23 0 0.0 14.5 0.00 0.00 0.00 82 1012.9
20260508000035 24 224 1.6 9.7 0.00 0.00 0.00 82 1012.7
20260507235536 24 288 1.6 9.7 0.00 0.00 0.00 82 1012.6
20260507235034 24 289 0.0 9.7 0.00 0.00 0.00 82 1012.3
20260507234550 24 342 0.0 9.7 0.00 0.00 0.00 80 1012.5
20260507234534 25 176 0.0 9.7 0.00 0.00 0.00 81 1012.3
20260507234035 25 331 0.0 4.8 0.00 0.00 0.00 80 1012.4
20260507233535 25 70 0.0 4.8 0.00 0.00 0.00 80 1012.2
20260507233051 25 0 0.0 9.7 0.00 0.00 0.00 80 1012.3
20260507233033 25 89 0.0 6.4 0.00 0.00 0.00 81 1012.1
20260507232535 25 89 1.6 8.0 0.00 0.00 0.00 80 1012.2
20260507232036 25 293 0.0 9.7 0.00 0.00 0.00 80 1012.1
20260507231558 25 0 0.0 11.3 0.00 0.00 0.00 80 1012.2
20260507231536 25 219 0.0 11.3 0.00 0.00 0.00 80 1012.0
20260507231035 25 207 0.0 11.3 0.00 0.00 0.00 80 1012.0
20260507230535 25 272 0.0 3.2 0.00 0.00 0.00 80 1012.0
20260507230051 25 0 0.0 4.8 0.00 0.00 0.00 79 1012.3
20260507230035 25 3 0.0 3.2 0.00 0.00 0.00 80 1012.1
20260507225534 25 322 0.0 3.2 0.00 0.00 0.00 80 1012.1
20260507225016 25 59 0.0 4.8 0.00 0.00 0.00 80 1012.3
20260507224551 25 0 0.0 4.8 0.00 0.00 0.00 79 1012.7
20260507224510 25 166 0.0 4.8 0.00 0.00 0.00 79 1012.4
20260507224004 25 316 0.0 6.4 0.00 0.00 0.00 79 1012.7
20260507223740 25 243 0.0 6.4 0.00 0.00 0.00 79 1012.5
20260507223048 25 0 0.0 12.9 0.00 0.00 0.00 79 1012.7
20260507223004 25 127 0.0 11.3 0.00 0.00 0.00 79 1012.5
20260507222723 25 37 0.0 11.3 0.00 0.00 0.00 79 1012.6
20260507222003 26 252 1.6 8.0 0.00 0.00 0.00 78 1012.6
20260507221558 26 0 0.0 9.7 0.00 0.00 0.00 78 1012.8
20260507221502 26 267 1.6 8.0 0.00 0.00 0.00 78 1012.6
20260507221000 26 327 0.0 8.0 0.00 0.00 0.00 78 1012.5
20260507220501 26 138 0.0 6.4 0.00 0.00 0.00 78 1012.5
20260507220053 26 251 0.0 8.0 0.00 0.00 0.00 77 1012.8
20260507220000 26 253 0.0 8.0 0.00 0.00 0.00 77 1012.6
20260507215500 26 126 1.6 8.0 0.00 0.00 0.00 77 1012.6
20260507215003 27 283 0.0 6.4 0.00 0.00 0.00 76 1012.6
20260507214554 26 0 0.0 4.8 0.00 0.00 0.00 75 1012.9
20260507214503 27 328 1.6 6.4 0.00 0.00 0.00 75 1012.7
20260507214003 27 345 0.0 4.8 0.00 0.00 0.00 76 1012.8
20260507213502 27 305 0.0 6.4 0.00 0.00 0.00 74 1012.8
20260507213048 27 0 0.0 16.1 0.00 0.00 0.00 73 1012.8
20260507213002 27 27 0.0 12.9 0.00 0.00 0.00 74 1012.5
20260507212502 27 169 0.0 12.9 0.00 0.00 0.00 74 1012.5
20260507212003 27 25 0.0 8.0 0.00 0.00 0.00 74 1012.3
20260507211724 27 319 0.0 12.9 0.00 0.00 0.00 75 1012.4
20260507211558 27 0 0.0 12.9 0.00 0.00 0.00 75 1012.6
20260507211003 27 188 1.6 12.9 0.00 0.00 0.00 74 1012.3
20260507210515 27 144 1.6 11.3 0.00 0.00 0.00 74 1012.4
20260507210051 27 0 0.0 11.3 0.00 0.00 0.00 73 1012.5
20260507210000 28 265 1.6 9.7 0.00 0.00 0.00 74 1012.4
20260507205500 28 137 1.6 9.7 0.00 0.00 0.00 74 1012.4
20260507205002 27 181 3.2 9.7 0.00 0.00 0.00 73 1012.6
20260507204553 28 243 0.0 11.3 0.00 0.00 0.00 72 1012.8
20260507204501 28 46 0.0 12.9 0.00 0.00 0.00 73 1012.7
20260507204001 28 290 0.0 12.9 0.00 0.00 0.00 74 1012.9
20260507203756 28 149 0.0 9.7 0.00 0.00 0.00 74 1012.9
20260507203055 27 0 1.6 11.3 0.00 0.00 0.00 73 1013.2
20260507203001 28 215 1.6 12.9 0.00 0.00 0.00 74 1013.1
20260507202500 28 91 0.0 12.9 0.00 0.00 0.00 73 1013.1
20260507202002 28 239 0.0 11.3 0.00 0.00 0.00 74 1013.2
20260507201556 27 0 0.0 12.9 0.00 0.00 0.00 75 1013.5
20260507201503 27 219 1.6 11.3 0.00 0.00 0.00 75 1013.3
20260507201015 27 233 0.0 11.3 0.00 0.00 0.00 75 1013.5
20260507200516 27 171 1.6 11.3 0.00 0.00 0.00 75 1013.6
20260507200231 27 160 0.0 8.0 0.00 0.00 0.00 75 1013.5
20260507200053 27 0 0.0 8.0 0.00 0.00 0.00 75 1013.7
20260507195501 27 184 0.0 8.0 0.00 0.00 0.00 75 1013.6
20260507195001 27 271 0.0 9.7 0.00 0.00 0.00 77 1013.6
20260507194551 27 0 0.0 14.5 0.00 0.00 0.00 76 1013.9
20260507194502 27 181 0.0 9.7 0.00 0.00 0.00 77 1013.7
20260507194001 27 79 0.0 16.1 0.00 0.00 0.00 77 1013.7
20260507193501 27 129 0.0 16.1 0.00 0.00 0.00 78 1013.8
20260507193058 26 0 0.0 11.3 0.00 0.00 0.00 77 1014.2
20260507193001 27 346 0.0 11.3 0.00 0.00 0.00 77 1014.0
20260507192500 27 296 0.0 3.2 0.00 0.00 0.00 77 1014.1
20260507191959 27 231 0.0 6.4 0.00 0.00 0.00 76 1014.0
20260507191723 27 295 0.0 6.4 0.00 0.00 0.00 77 1014.1
20260507191552 27 0 0.0 6.4 0.00 0.00 0.00 77 1014.2
20260507190957 27 311 0.0 6.4 0.00 0.00 0.00 76 1014.0
20260507190456 27 242 0.0 8.0 0.00 0.00 0.00 77 1014.2
20260507190047 27 0 1.6 11.3 0.00 0.00 0.00 77 1014.4
20260507185956 27 105 3.2 9.7 0.00 0.00 0.00 77 1014.3
20260507185455 27 3 0.0 9.7 0.00 0.00 0.00 76 1014.3
20260507184956 27 221 0.0 9.7 0.00 0.00 0.00 77 1014.3
20260507184550 26 0 0.0 11.3 0.00 0.00 0.00 77 1014.5
20260507184449 27 25 0.0 11.3 0.00 0.00 0.00 79 1014.3
20260507183948 26 162 3.2 12.9 0.00 0.00 0.00 78 1014.4
20260507183447 26 191 0.0 12.9 0.00 0.00 0.00 79 1014.3
20260507183100 26 0 0.0 6.4 0.00 0.00 0.00 80 1014.7
20260507182940 26 212 0.0 6.4 0.00 0.00 0.00 80 1014.6
20260507182439 25 331 0.0 8.0 0.00 0.00 0.00 82 1014.9
20260507181940 25 194 0.0 12.9 0.00 0.00 0.00 81 1014.9
20260507181931 25 260 0.0 12.9 0.00 0.00 0.00 82 1014.9
20260507181553 25 184 0.0 11.3 0.00 0.00 0.00 82 1015.2
20260507180938 25 296 0.0 9.7 0.00 0.00 0.00 82 1014.9
20260507180433 25 191 0.0 9.7 0.00 0.00 0.00 83 1015.0
20260507180105 25 0 0.0 9.7 0.00 0.00 0.00 82 1015.3
20260507175933 25 257 1.6 9.7 0.00 0.00 0.00 83 1015.0
20260507175655 25 124 0.0 8.0 0.00 0.00 0.00 83 1015.1
20260507174931 25 124 0.0 6.4 0.00 0.00 0.00 83 1015.2
20260507174617 25 0 0.0 4.8 0.00 0.00 0.00 82 1015.3
20260507174431 25 40 0.0 6.4 0.00 0.00 0.00 83 1015.2
20260507173925 25 84 0.0 9.7 0.00 0.00 0.00 82 1015.3
20260507173424 25 252 0.0 9.7 0.00 0.00 0.00 82 1015.2
20260507173048 25 0 0.0 8.0 0.00 0.00 0.00 81 1015.5
20260507172917 25 198 0.0 4.8 0.00 0.00 0.00 82 1015.1
20260507172418 26 73 0.0 6.4 0.00 0.00 0.00 81 1015.1
20260507171903 26 325 0.0 11.3 0.00 0.00 0.00 81 1015.3
20260507171609 25 325 1.6 14.5 0.00 0.00 0.00 80 1015.4
20260507171402 26 118 1.6 16.1 0.00 0.00 0.00 81 1015.2
20260507170902 26 117 0.0 16.1 0.00 0.00 0.00 80 1015.1
20260507170402 26 259 0.0 6.4 0.00 0.00 0.00 81 1015.0
20260507170052 25 0 0.0 12.9 0.00 0.00 0.00 81 1015.4
20260507165902 26 89 0.0 12.9 0.00 0.00 0.00 81 1015.3
20260507165400 26 242 0.0 12.9 0.00 0.00 0.00 81 1015.3
20260507164901 26 15 0.0 9.7 0.00 0.00 0.00 81 1015.3
20260507164556 25 0 0.0 9.7 0.00 0.00 0.00 80 1015.4
20260507164401 25 213 0.0 6.4 0.00 0.00 0.00 82 1015.2
20260507163901 25 125 0.0 1.6 0.00 0.00 0.00 82 1015.2
20260507163400 25 125 0.0 1.6 0.00 0.00 0.00 83 1015.2
20260507163059 25 0 0.0 6.4 0.00 0.00 0.00 83 1015.4
20260507162902 25 222 0.0 4.8 0.00 0.00 0.00 83 1015.3
20260507162400 25 118 0.0 4.8 0.00 0.00 0.00 83 1015.2
20260507161901 25 301 0.0 4.8 0.00 0.00 0.00 84 1015.1
20260507161555 24 0 0.0 3.2 0.00 0.00 0.00 84 1015.3
20260507161401 24 6 0.0 4.8 0.00 0.00 0.00 84 1015.1
20260507160901 24 173 0.0 8.0 0.00 0.00 0.00 85 1015.1
20260507160400 23 173 0.0 8.0 0.00 0.00 0.00 86 1015.1
20260507160112 23 9 0.0 8.0 0.00 0.00 0.00 85 1015.3
20260507155900 23 22 0.0 6.4 0.00 0.00 0.00 86 1015.1
20260507155400 23 39 0.0 3.2 0.00 0.00 0.00 86 1015.2
20260507154900 23 288 0.0 3.2 0.00 0.00 0.00 86 1015.1
20260507154626 23 287 0.0 1.6 0.00 0.00 0.00 86 1015.1
20260507154555 23 0 0.0 1.6 0.00 0.00 0.00 86 1015.2
20260507153903 23 334 0.0 4.8 0.00 0.00 0.00 87 1015.1
20260507153402 23 248 0.0 4.8 0.00 0.00 0.00 87 1015.0
20260507153055 23 0 0.0 0.0 0.00 0.00 0.00 87 1015.2
20260507152902 23 202 0.0 0.0 0.00 0.00 0.00 87 1014.9
20260507152402 23 202 0.0 0.0 0.00 0.00 0.00 88 1015.0
20260507151901 23 295 0.0 4.8 0.00 0.00 0.00 88 1014.9
20260507151558 23 0 0.0 3.2 0.00 0.00 0.00 88 1015.0
20260507151401 23 295 0.0 4.8 0.00 0.00 0.00 89 1014.9
20260507151122 23 190 0.0 0.0 0.00 0.00 0.00 89 1014.8
20260507150401 23 190 0.0 0.0 0.00 0.00 0.00 89 1014.8
20260507150053 23 0 0.0 1.6 0.00 0.00 0.00 88 1015.0
20260507145901 23 190 0.0 0.0 0.00 0.00 0.00 89 1014.8
20260507145400 23 190 0.0 1.6 0.00 0.00 0.00 89 1014.7
20260507144900 23 190 0.0 1.6 0.00 0.00 0.00 90 1014.7
20260507144548 23 0 0.0 8.0 0.00 0.00 0.00 89 1014.8
20260507144401 23 158 0.0 6.4 0.00 0.00 0.00 90 1014.7
20260507143902 23 176 0.0 6.4 0.00 0.00 0.00 90 1014.5
20260507143402 23 15 0.0 4.8 0.00 0.00 0.00 90 1014.4
20260507143105 23 0 0.0 4.8 0.00 0.00 0.00 90 1014.6
20260507142902 23 219 0.0 4.8 0.00 0.00 0.00 90 1014.5
20260507142627 23 18 0.0 0.0 0.00 0.00 0.00 90 1014.4
20260507142125 23 18 0.0 0.0 0.00 0.00 0.00 89 1014.4
20260507141849 23 18 0.0 1.6 0.00 0.00 0.00 89 1014.5
20260507141633 23 0 0.0 1.6 0.00 0.00 0.00 89 1014.6
20260507140903 23 18 0.0 3.2 0.00 0.00 0.00 89 1014.3
20260507140630 23 139 0.0 3.2 0.00 0.00 0.00 89 1014.2
20260507140110 23 0 0.0 1.6 0.00 0.00 0.00 88 1014.4
20260507135902 24 147 0.0 0.0 0.00 0.00 0.00 89 1014.2
20260507135624 24 147 0.0 0.0 0.00 0.00 0.00 89 1014.1
20260507134900 24 147 0.0 0.0 0.00 0.00 0.00 89 1013.9
20260507134629 24 147 0.0 0.0 0.00 0.00 0.00 89 1013.8
20260507134555 23 0 0.0 0.0 0.00 0.00 0.00 88 1014.0
20260507133901 24 147 0.0 0.0 0.00 0.00 0.00 88 1013.7
20260507133401 24 189 0.0 0.0 0.00 0.00 0.00 88 1013.5
20260507133125 24 189 0.0 0.0 0.00 0.00 0.00 88 1013.4
20260507133103 24 0 0.0 0.0 0.00 0.00 0.00 87 1013.7
20260507132401 25 293 0.0 3.2 0.00 0.00 0.00 87 1013.3
20260507131900 25 293 0.0 4.8 0.00 0.00 0.00 85 1013.1
20260507131612 25 0 0.0 4.8 0.00 0.00 0.00 84 1013.4
20260507131401 26 342 0.0 4.8 0.00 0.00 0.00 84 1013.1
20260507130901 27 9 0.0 0.0 0.00 0.00 0.00 88 1012.9
20260507130401 27 9 0.0 0.0 0.00 0.00 0.00 89 1012.8
20260507130106 26 0 0.0 1.6 0.00 0.00 0.00 88 1012.9
20260507125900 27 9 0.0 0.0 0.00 0.00 0.00 89 1012.6
20260507125402 27 315 0.0 0.0 0.00 0.00 0.00 89 1012.4
20260507124900 27 315 0.0 0.0 0.00 0.00 0.00 89 1012.6
20260507124601 26 0 0.0 0.0 0.00 0.00 0.00 89 1012.7
20260507124402 26 315 0.0 1.6 0.00 0.00 0.00 89 1012.5
20260507123901 26 315 0.0 1.6 0.00 0.00 0.00 89 1012.4
20260507123403 26 281 0.0 0.0 0.00 0.00 0.00 90 1012.3
20260507123051 26 0 0.0 0.0 0.00 0.00 0.00 89 1012.6
20260507122902 27 281 0.0 0.0 0.00 0.00 0.00 89 1012.4
20260507122402 27 281 0.0 0.0 0.00 0.00 0.00 89 1012.4
20260507121901 27 281 0.0 0.0 0.00 0.00 0.00 89 1012.2
20260507121556 26 0 0.0 0.0 0.00 0.00 0.00 89 1012.4
20260507121401 27 281 0.0 0.0 0.00 0.00 0.00 89 1012.2
20260507121125 27 281 0.0 0.0 0.00 0.00 0.00 89 1012.3
20260507120401 27 281 0.0 0.0 0.00 0.00 0.00 89 1012.3
20260507120058 26 0 0.0 0.0 0.00 0.00 0.00 88 1012.4
20260507115902 27 281 0.0 0.0 0.00 0.00 0.00 89 1012.3
20260507115402 27 281 0.0 0.0 0.00 0.00 0.00 89 1012.0
20260507114901 27 281 0.0 0.0 0.00 0.00 0.00 89 1012.0
20260507114552 26 0 0.0 0.0 0.00 0.00 0.00 88 1012.2
20260507114402 27 281 0.0 0.0 0.00 0.00 0.00 89 1012.0
20260507113901 27 281 0.0 0.0 0.00 0.00 0.00 89 1011.9
20260507113843 27 281 0.0 0.0 0.00 0.00 0.00 89 1011.9
20260507113122 27 0 0.0 0.0 0.00 0.00 0.00 88 1011.8
20260507112903 27 281 0.0 0.0 0.00 0.00 0.00 89 1011.7
20260507112403 27 281 0.0 0.0 0.00 0.00 0.00 89 1011.7
20260507112123 27 281 0.0 0.0 0.00 0.00 0.00 89 1011.8
20260507111557 27 0 0.0 0.0 0.00 0.00 0.00 88 1012.1
20260507111402 27 281 0.0 0.0 0.00 0.00 0.00 89 1011.8
20260507110901 27 281 0.0 0.0 0.00 0.00 0.00 89 1011.3
20260507110401 27 281 0.0 0.0 0.00 0.00 0.00 89 1011.1
20260507110055 27 0 0.0 0.0 0.00 0.00 0.00 88 1011.6
20260507105901 27 281 0.0 0.0 0.00 0.00 0.00 89 1011.1
20260507105400 27 281 0.0 0.0 0.00 0.00 0.00 89 1011.2
20260507104900 27 281 0.0 0.0 0.00 0.00 0.00 89 1011.3
20260507104559 27 0 0.0 0.0 0.00 0.00 0.00 88 1011.7
20260507104403 27 281 0.0 1.6 0.00 0.00 0.00 89 1011.3
20260507103903 27 281 0.0 1.6 0.00 0.00 0.00 88 1011.2
20260507103625 27 33 0.0 0.0 0.00 0.00 0.00 88 1010.9
20260507103049 27 0 0.0 0.0 0.00 0.00 0.00 88 1011.0
20260507102902 27 33 0.0 0.0 0.00 0.00 0.00 88 1010.7
20260507102402 27 33 0.0 0.0 0.00 0.00 0.00 88 1011.6
20260507101902 27 33 0.0 0.0 0.00 0.00 0.00 88 1011.7
20260507101552 27 0 0.0 0.0 0.00 0.00 0.00 88 1011.8
20260507101402 27 33 0.0 0.0 0.00 0.00 0.00 88 1011.8
20260507100854 27 33 0.0 0.0 0.00 0.00 0.00 88 1012.0
20260507100342 27 33 0.0 0.0 0.00 0.00 0.00 88 1011.6
20260507100056 27 0 0.0 0.0 0.00 0.00 0.00 88 1011.8
20260507095839 27 33 0.0 0.0 0.00 0.00 0.00 88 1011.7
20260507095601 27 33 0.0 0.0 0.00 0.00 0.00 88 1011.7
20260507094838 27 33 0.0 0.0 0.00 0.00 0.00 88 1011.0
20260507094555 27 0 0.0 0.0 0.00 0.00 0.00 88 1011.1
20260507094331 27 33 0.0 0.0 0.00 0.00 0.00 88 1010.7
20260507093830 27 33 0.0 0.0 0.00 0.00 0.00 88 1010.9
20260507093545 27 33 0.0 0.0 0.00 0.00 0.00 88 1011.2
20260507093050 27 0 0.0 0.0 0.00 0.00 0.00 87 1011.5
20260507092813 27 33 0.0 0.0 0.00 0.00 0.00 88 1011.2
20260507092311 27 33 0.0 0.0 0.00 0.00 0.00 88 1010.9
20260507091811 27 33 0.0 0.0 0.00 0.00 0.00 87 1010.8
20260507091550 27 0 0.0 0.0 0.00 0.00 0.00 87 1011.1
20260507091303 27 33 0.0 1.6 0.00 0.00 0.00 87 1010.8
20260507091029 27 33 0.0 1.6 0.00 0.00 0.00 87 1010.9
20260507090302 27 297 0.0 1.6 0.00 0.00 0.00 87 1011.1
20260507090047 27 297 0.0 0.0 0.00 0.00 0.00 86 1011.4
20260507085802 27 216 0.0 0.0 0.00 0.00 0.00 86 1011.1
20260507085524 27 216 0.0 0.0 0.00 0.00 0.00 86 1011.1
20260507084801 27 216 0.0 0.0 0.00 0.00 0.00 86 1011.1
20260507084556 27 0 0.0 1.6 0.00 0.00 0.00 85 1011.4
20260507084302 27 283 0.0 0.0 0.00 0.00 0.00 85 1011.1
20260507083802 28 142 0.0 0.0 0.00 0.00 0.00 85 1011.3
20260507083531 27 142 0.0 0.0 0.00 0.00 0.00 85 1011.3
20260507083047 27 0 0.0 0.0 0.00 0.00 0.00 85 1011.7
20260507083018 27 142 0.0 0.0 0.00 0.00 0.00 85 1011.7
20260507082255 28 142 0.0 0.0 0.00 0.00 0.00 85 1011.7
20260507081748 28 142 0.0 0.0 0.00 0.00 0.00 85 1011.7
20260507081543 27 0 0.0 0.0 0.00 0.00 0.00 84 1011.9
20260507081248 28 142 0.0 0.0 0.00 0.00 0.00 85 1011.8
20260507080741 28 142 0.0 0.0 0.00 0.00 0.00 85 1011.7
20260507080239 28 142 0.0 0.0 0.00 0.00 0.00 85 1011.7
20260507080054 27 0 0.0 0.0 0.00 0.00 0.00 84 1011.9
20260507075735 28 142 0.0 0.0 0.00 0.00 0.00 85 1011.8
20260507075235 28 142 0.0 0.0 0.00 0.00 0.00 85 1012.0
20260507074735 28 142 0.0 0.0 0.00 0.00 0.00 85 1011.9
20260507074548 27 0 0.0 0.0 0.00 0.00 0.00 84 1012.1
20260507074512 28 142 0.0 0.0 0.00 0.00 0.00 85 1011.8
20260507074428 28 142 0.0 0.0 0.00 0.00 0.00 85 1011.8
20260507073226 28 142 0.0 0.0 0.00 0.00 0.00 85 1012.0
20260507073044 27 0 0.0 0.0 0.00 0.00 0.00 84 1012.2
20260507072726 28 142 0.0 0.0 0.00 0.00 0.00 85 1011.8
20260507072445 28 142 0.0 0.0 0.00 0.00 0.00 85 1011.8
20260507071719 28 142 0.0 0.0 0.00 0.00 0.00 84 1011.6
20260507071546 27 0 0.0 0.0 0.00 0.00 0.00 84 1011.7
20260507071204 28 142 0.0 0.0 0.00 0.00 0.00 84 1011.4
20260507070704 28 142 0.0 0.0 0.00 0.00 0.00 84 1011.4
20260507070203 28 142 0.0 0.0 0.00 0.00 0.00 84 1011.7
20260507070103 27 0 0.0 0.0 0.00 0.00 0.00 84 1011.9
20260507065704 28 142 0.0 0.0 0.00 0.00 0.00 84 1011.8
20260507065203 28 142 0.0 0.0 0.00 0.00 0.00 84 1011.7
20260507064702 28 142 0.0 0.0 0.00 0.00 0.00 85 1011.7
20260507064602 27 0 0.0 0.0 0.00 0.00 0.00 84 1011.9
20260507064203 28 142 0.0 0.0 0.00 0.00 0.00 85 1011.7
20260507063703 28 142 0.0 0.0 0.00 0.00 0.00 85 1011.8
20260507063418 28 142 0.0 0.0 0.00 0.00 0.00 85 1011.8
20260507063055 27 0 0.0 0.0 0.00 0.00 0.00 84 1012.1
20260507062650 28 142 0.0 0.0 0.00 0.00 0.00 85 1011.8
20260507062144 28 142 0.0 0.0 0.00 0.00 0.00 84 1011.6
20260507061638 28 142 0.0 0.0 0.00 0.00 0.00 84 1011.8
20260507061551 27 0 0.0 0.0 0.00 0.00 0.00 83 1012.0
20260507061138 28 142 0.0 0.0 0.00 0.00 0.00 84 1011.8
20260507060939 28 142 0.0 3.2 0.00 0.00 0.00 84 1011.8
20260507060137 28 143 0.0 3.2 0.00 0.00 0.00 83 1011.8
20260507060051 27 0 0.0 0.0 0.00 0.00 0.00 83 1012.0
20260507055633 28 311 0.0 0.0 0.00 0.00 0.00 83 1011.9
20260507055132 28 304 0.0 0.0 0.00 0.00 0.00 83 1011.9
20260507054632 28 304 0.0 0.0 0.00 0.00 0.00 83 1012.0
20260507054551 28 0 0.0 0.0 0.00 0.00 0.00 83 1012.2
20260507054130 28 304 0.0 1.6 0.00 0.00 0.00 83 1012.1
20260507053631 28 304 0.0 1.6 0.00 0.00 0.00 84 1012.0
20260507053130 28 89 0.0 0.0 0.00 0.00 0.00 83 1011.8
20260507053047 27 0 0.0 0.0 0.00 0.00 0.00 83 1012.0
20260507052630 28 89 0.0 0.0 0.00 0.00 0.00 83 1012.0
20260507052130 28 89 0.0 3.2 0.00 0.00 0.00 83 1011.9
20260507052116 28 89 0.0 3.2 0.00 0.00 0.00 83 1012.1
20260507051549 28 0 0.0 3.2 0.00 0.00 0.00 83 1012.2
20260507051129 28 203 0.0 1.6 0.00 0.00 0.00 84 1012.0
20260507050630 28 186 0.0 1.6 0.00 0.00 0.00 83 1011.9
20260507050130 28 308 0.0 3.2 0.00 0.00 0.00 83 1011.9
20260507050104 28 0 0.0 3.2 0.00 0.00 0.00 83 1012.0
20260507045630 28 307 0.0 3.2 0.00 0.00 0.00 84 1011.7
20260507045130 28 190 0.0 3.2 0.00 0.00 0.00 83 1011.7
20260507045111 28 231 0.0 3.2 0.00 0.00 0.00 83 1011.7
20260507044554 28 0 0.0 3.2 0.00 0.00 0.00 83 1011.9
20260507044129 28 266 0.0 0.0 0.00 0.00 0.00 83 1011.7
20260507043631 28 266 0.0 1.6 0.00 0.00 0.00 83 1011.7
20260507043132 28 266 0.0 1.6 0.00 0.00 0.00 83 1011.7
20260507043050 28 0 0.0 3.2 0.00 0.00 0.00 83 1011.8
20260507042631 28 237 0.0 3.2 0.00 0.00 0.00 83 1011.6
20260507042131 28 237 0.0 3.2 0.00 0.00 0.00 83 1011.4
20260507041632 28 323 0.0 1.6 0.00 0.00 0.00 83 1011.3
20260507041552 28 0 0.0 3.2 0.00 0.00 0.00 82 1011.6
20260507041129 28 131 0.0 6.4 0.00 0.00 0.00 83 1011.4
20260507040631 28 123 0.0 9.7 0.00 0.00 0.00 83 1011.3
20260507040130 28 192 1.6 9.7 0.00 0.00 0.00 82 1011.2
20260507040053 28 0 0.0 6.4 0.00 0.00 0.00 82 1011.4
20260507035630 28 77 1.6 6.4 0.00 0.00 0.00 82 1011.1
20260507035418 28 159 0.0 9.7 0.00 0.00 0.00 82 1011.1
20260507034629 28 200 1.6 9.7 0.00 0.00 0.00 81 1010.9
20260507034546 28 316 0.0 3.2 0.00 0.00 0.00 81 1011.3
20260507034130 28 349 0.0 6.4 0.00 0.00 0.00 81 1010.9
20260507033630 28 232 0.0 6.4 0.00 0.00 0.00 81 1010.8
20260507033131 29 109 0.0 3.2 0.00 0.00 0.00 80 1010.7
20260507033049 28 0 0.0 6.4 0.00 0.00 0.00 80 1011.1
20260507032630 29 59 0.0 6.4 0.00 0.00 0.00 80 1010.7
20260507032130 29 101 1.6 8.0 0.00 0.00 0.00 80 1010.8
20260507031630 29 321 1.6 9.7 0.00 0.00 0.00 79 1010.7
20260507031553 29 0 0.0 8.0 0.00 0.00 0.00 79 1010.9
20260507031129 29 78 1.6 9.7 0.00 0.00 0.00 79 1010.6
20260507030630 29 130 3.2 12.9 0.00 0.00 0.00 79 1010.5
20260507030131 30 276 1.6 12.9 0.00 0.00 0.00 78 1010.4
20260507030050 29 0 1.6 12.9 0.00 0.00 0.00 78 1010.7
20260507025900 30 35 1.6 9.7 0.00 0.00 0.00 78 1010.2
20260507025130 30 126 3.2 8.0 0.00 0.00 0.00 77 1010.2
20260507024630 30 154 1.6 12.9 0.00 0.00 0.00 77 1010.0
20260507024550 30 0 0.0 12.9 0.00 0.00 0.00 76 1010.2
20260507024130 30 276 1.6 16.1 0.00 0.00 0.00 76 1009.9
20260507023632 30 159 0.0 16.1 0.00 0.00 0.00 76 1009.8
20260507023131 30 95 0.0 14.5 0.00 0.00 0.00 75 1009.7
20260507023048 30 224 3.2 14.5 0.00 0.00 0.00 75 1009.9
20260507022630 30 52 1.6 14.5 0.00 0.00 0.00 75 1009.4
20260507022130 30 79 1.6 14.5 0.00 0.00 0.00 74 1009.2
20260507021630 31 346 3.2 11.3 0.00 0.00 0.00 73 1009.2
20260507021557 30 226 0.0 9.7 0.00 0.00 0.00 73 1009.5
20260507021354 31 308 1.6 9.7 0.00 0.00 0.00 73 1009.1
20260507020852 31 165 1.6 12.9 0.00 0.00 0.00 72 1008.9
20260507020131 31 157 3.2 12.9 0.00 0.00 0.00 72 1008.9
20260507020048 31 231 0.0 11.3 0.00 0.00 0.00 71 1009.2
20260507015630 31 302 0.0 9.7 0.00 0.00 0.00 71 1008.8
20260507015130 31 275 1.6 9.7 0.00 0.00 0.00 70 1008.7
20260507014629 32 238 0.0 12.9 0.00 0.00 0.00 69 1008.6
20260507014547 31 120 1.6 12.9 0.00 0.00 0.00 69 1008.8
20260507014130 32 27 1.6 12.9 0.00 0.00 0.00 69 1008.4
20260507013630 32 281 1.6 14.5 0.00 0.00 0.00 69 1008.3
20260507013132 32 181 4.8 14.5 0.00 0.00 0.00 69 1008.2
20260507013050 32 338 6.4 16.1 0.00 0.00 0.00 69 1008.4